Location: Praha
(50.0830°N, 14.4670°E)
Time: 15:42:29
(UTC+01:00)

ISS - Pass Details

Date: 04 February 2024
Orbit: 414 x 422 km, 51.6° (Epoch: 04 March)

Event Time Altitude Azimuth Distance (km) Brightness Sun altitude
Rises 17:50:29 0° 281° (W) 2,379 1.4 -8.4°
Reaches altitude 10° 17:53:29 10° 252° (WSW) 1,506 0.8 -8.8°
Maximum altitude 17:55:05 13° 223° (SW) 1,336 -0.3 -9.1°
Drops below altitude 10° 17:56:42 10° 195° (SSW) 1,497 -0.6 -9.3°
Enters shadow 18:05:10 -14° 148° (SSE) 4,423 1.3 -10.7°
